This demonstration page uses our WeatherBlox Daily Observations layout. Learn more.

Hourly Observations for December 3, 2017

Temp ( °F °C ) Dew Point ( °F °C ) Humidity (%) Winds ( mph kmh ) Pressure ( in mb ) Visibility ( mi km ) Precip ( " mm )
12:15 am 00:15 Clear 36 2 24 -4.6 62 62 Calm 30.15 1021 10 16.09344 0 0
12:35 am 00:35 Clear 35 1.4 24 -4.6 65 65 Calm 30.15 1021 10 16.09344 0 0
12:55 am 00:55 Clear 37 2.6 25 -3.8 63 63 Calm 30.15 1021 10 16.09344 0 0
1:15 am 01:15 Clear 29 -1.4 22 -5.7 73 73 Calm 30.15 1021 10 16.09344 0 0
1:35 am 01:35 Clear 31 -0.5 24 -4.7 74 74 SSE 3 6 30.15 1021 10 16.09344 0 0
1:55 am 01:55 Clear 34 1 25 -4 70 70 SSE 5 7 30.12 1020 10 16.09344 0 0
2:15 am 02:15 Clear 33 0.4 25 -4.1 72 72 SSE 3 6 30.12 1020 10 16.09344 0 0
2:35 am 02:35 Clear 33 0.3 25 -4 73 73 Calm 30.12 1020 10 16.09344 0 0
2:55 am 02:55 Clear 33 0.5 25 -3.8 73 73 SSE 5 7 30.12 1020 10 16.09344 0 0
3:15 am 03:15 Clear 32 0.2 26 -3.6 76 76 S 5 7 30.09 1019 10 16.09344 0 0
3:35 am 03:35 Clear 32 0.1 25 -4 74 74 S 6 9 30.09 1019 10 16.09344 0 0
3:55 am 03:55 Clear 33 0.3 25 -3.7 75 75 S 3 6 30.09 1019 10 16.09344 0 0
4:15 am 04:15 Clear 33 0.5 26 -3.5 75 75 S 6 9 30.09 1019 10 16.09344 0 0
4:35 am 04:35 Clear 32 0.2 27 -3 79 79 SSE 7 11 30.06 1018 10 16.09344 0 0
4:55 am 04:55 Clear 33 0.6 28 -2.5 80 80 S 5 7 30.06 1018 10 16.09344 0 0
5:15 am 05:15 Clear 33 0.7 28 -2.2 81 81 S 5 7 30.06 1018 10 16.09344 0 0
5:35 am 05:35 Clear 35 1.5 29 -1.6 80 80 Calm 30.06 1018 10 16.09344 0 0
5:55 am 05:55 Clear 36 2 29 -1.6 77 77 S 5 7 30.06 1018 10 16.09344 0 0
6:15 am 06:15 Clear 36 2.1 30 -1.1 80 80 S 8 13 30.06 1018 10 16.09344 0 0
6:35 am 06:35 Clear 36 2.4 31 -0.7 80 80 SSW 5 7 30.06 1018 10 16.09344 0 0
6:55 am 06:55 Clear 35 1.8 30 -0.9 82 82 S 7 11 30.06 1018 10 16.09344 0 0
7:15 am 07:15 Clear 34 1 29 -1.6 83 83 S 8 13 30.06 1018 10 16.09344 0 0
7:35 am 07:35 Clear 33 0.4 28 -2 84 84 S 6 9 30.06 1018 10 16.09344 0 0
7:55 am 07:55 Sunny 32 0.1 29 -1.7 88 88 S 6 9 30.06 1018 10 16.09344 0 0
8:15 am 08:15 Sunny 34 1.2 31 -0.7 87 87 S 7 11 30.03 1017 10 16.09344 0 0
8:35 am 08:35 Sunny 36 2.2 32 -0.2 84 84 S 7 11 30 1016 10 16.09344 0 0
8:55 am 08:55 Sunny 38 3.6 34 1 83 83 S 9 15 30 1016 10 16.09344 0 0
9:15 am 09:15 Sunny 41 5.1 36 2.3 82 82 S 9 15 30 1016 10 16.09344 0 0
9:35 am 09:35 Sunny 43 6.2 38 3.4 82 82 S 8 13 29.94 1014 10 16.09344 0 0
9:55 am 09:55 Sunny 45 7.1 40 4.2 82 82 S 8 13 29.94 1014 10 16.09344 0 0
10:15 am 10:15 Sunny 46 7.9 40 4.5 79 79 S 9 15 29.94 1014 10 16.09344 0 0
10:35 am 10:35 Sunny 47 8.6 41 5 78 78 S 12 19 29.91 1013 10 16.09344 0 0
10:55 am 10:55 Sunny 50 9.8 42 5.7 76 76 S 14 22 29.88 1012 10 16.09344 0 0
11:15 am 11:15 Sunny 51 10.3 43 6 75 75 S 10 17 29.88 1012 10 16.09344 0 0
11:35 am 11:35 Sunny 51 10.3 43 6 75 75 S 13 20 29.85 1011 10 16.09344 0 0
11:55 am 11:55 Sunny 51 10.4 42 5.8 73 73 S 14 22 29.83 1010 10 16.09344 0 0
12:15 pm 12:15 Sunny 53 11.5 43 6.3 71 71 S 13 20 29.77 1008 10 16.09344 0 0
12:35 pm 12:35 Sunny 54 12.3 45 7 70 70 S 14 22 29.77 1008 10 16.09344 0 0
12:55 pm 12:55 Sunny 55 13 44 6.9 67 67 S 16 26 29.77 1008 10 16.09344 0 0
1:15 pm 13:15 Sunny 55 12.9 45 7 68 68 S 15 24 29.77 1008 10 16.09344 0 0
1:35 pm 13:35 Sunny 55 12.8 45 7.3 69 69 S 10 17 29.74 1007 10 16.09344 0 0
1:55 pm 13:55 Sunny 55 12.8 46 7.5 70 70 S 13 20 29.74 1007 10 16.09344 0 0
2:15 pm 14:15 Sunny 55 13 45 7.4 69 69 S 13 20 29.71 1006 10 16.09344 0 0
2:35 pm 14:35 Sunny 55 12.8 45 7.4 70 70 SSE 10 17 29.71 1006 10 16.09344 0 0
2:55 pm 14:55 Sunny 55 12.7 45 7.2 69 69 SSE 9 15 29.68 1005 10 16.09344 0 0
3:15 pm 15:15 Sunny 55 12.6 45 7.4 71 71 SSE 12 19 29.68 1005 10 16.09344 0 0
3:35 pm 15:35 Sunny 55 12.8 46 7.6 71 71 SSE 12 19 29.68 1005 10 16.09344 0 0
3:55 pm 15:55 Sunny 55 12.6 46 7.6 72 72 SSE 10 17 29.68 1005 10 16.09344 0 0
4:15 pm 16:15 Sunny 55 12.5 46 7.5 72 72 SE 12 19 29.65 1004 10 16.09344 0 0
4:35 pm 16:35 Sunny 53 11.9 45 7.3 74 74 SE 8 13 29.65 1004 10 16.09344 0 0
4:55 pm 16:55 Sunny 50 10.2 44 6.6 79 79 SE 8 13 29.65 1004 10 16.09344 0 0
5:15 pm 17:15 Clear 48 8.7 42 5.7 82 82 ESE 7 11 29.68 1005 10 16.09344 0 0
5:35 pm 17:35 Clear 46 8 42 5.5 84 84 ESE 8 13 29.65 1004 10 16.09344 0 0
5:55 pm 17:55 Clear 46 8 43 5.9 87 87 E 9 15 29.65 1004 10 16.09344 0 0
6:15 pm 18:15 Clear 48 8.8 44 6.4 85 85 E 7 11 29.65 1004 10 16.09344 0 0
6:35 pm 18:35 Clear 45 7.4 42 5.4 87 87 E 8 13 29.62 1003 10 16.09344 0 0
6:55 pm 18:55 Clear 45 7.1 42 5.8 92 92 ESE 10 17 29.62 1003 10 16.09344 0 0
7:15 pm 19:15 Clear 45 7.1 43 5.9 92 92 ESE 9 15 29.62 1003 10 16.09344 0 0
7:35 pm 19:35 Clear 44 6.9 42 5.8 93 93 SSE 7 11 29.62 1003 10 16.09344 0 0
7:55 pm 19:55 Clear 45 7.2 43 6 92 92 SSE 6 9 29.62 1003 10 16.09344 0 0
8:15 pm 20:15 Clear 44 6.9 43 6.1 95 95 SSE 8 13 29.59 1002 10 16.09344 0 0
8:35 pm 20:35 Clear 45 7.1 43 6 93 93 SSE 8 13 29.59 1002 10 16.09344 0 0
8:55 pm 20:55 Clear 45 7.2 42 5.5 89 89 SSE 5 7 29.56 1001 10 16.09344 0 0
9:15 pm 21:15 Clear 44 6.8 42 5.6 92 92 SSE 5 7 29.56 1001 10 16.09344 0 0
9:35 pm 21:35 Clear 44 6.5 41 5.2 92 92 SSE 3 6 29.56 1001 10 16.09344 0 0
9:55 pm 21:55 Clear 41 5.1 39 4.1 93 93 SSE 6 9 29.53 1000 10 16.09344 0 0
10:15 pm 22:15 Clear 44 6.7 42 5.4 92 92 SSE 7 11 29.53 1000 10 16.09344 0 0
10:35 pm 22:35 Clear 43 6.1 41 4.9 92 92 Calm 29.53 1000 10 16.09344 0 0
10:55 pm 22:55 Clear 40 4.7 40 4.3 97 97 SSE 7 11 29.5 999 10 16.09344 0 0
11:15 pm 23:15 Clear 44 6.5 42 5.8 95 95 SSE 6 9 29.5 999 10 16.09344 0 0
11:35 pm 23:35 Clear 44 6.8 42 5.8 93 93 SSE 7 11 29.5 999 10 16.09344 0 0
11:55 pm 23:55 Clear 45 7.1 43 6.2 94 94 SSE 8 13 29.5 999 10 16.09344 0 0

Powered by AerisWeather